Погода Уля

Погода Уля : погода сейчас, прогноз погоды и архив. Всё, что Вы хотите узнать о погоде Уля!

Поиск расширенной информации на нашем сайте:

Другие новости

Новости СМИ2

Главная страница сайта

Новости сайта

02.10.2013

Напоминаем, что на нашем новом сайте вы можете получить высокодетализированные прогнозы погоды по пунктам России, СНГ и мира (включающие важные для авиации метеовеличины, такие как направление и скорость ветра, видимость, явления погоды, количество и форма облачности, нижняя и верхняя граница облачности), а также ознакомиться с разнообразными материалами по авиационной метеорологии и подборкой полезных ссылок на эту тему.

Сайт Метеоцентр.Азия посвящён разработке технологий оптимизации авиаметеорологического обслуживания, включая проектирование и перспективное создание нескольких автоматизированных авиаметеорологических систем:
- система выпуска высокодетальных прогностических карт явлений погоды для нижнего воздушного пространства по России и ближнему зарубежью;
- система верификации прогнозов TAF (выпускаемых синоптиками официальных АМСГ РФ и ближнего зарубежья) и AUTOTAF (выпускаемых сайтом Метеоцентр.Азия) - выявление ошибок, онлайн-сопоставление с фактической погодой METAR, автоматическое внесение коррективов в прогнозы при резком отклонении фактической погоды от прогноза, подсчёт оправдываемости прогнозов по элементам и в целом;
- система обработки, анализа и отображения авиаметеорологической информации для применения провайдерами метеорологической информации.


Погода Уля - сегодня

Время (UTC), дата Ветер
(°,м/с) 
Видим.   Явления Облачность Т
(°С)
Тd
(°С)
f(%) Тe
(°С)
Pmin
(гПа)
dP
(гПа)
Po
(мм)
O2
(г/м3)
Тmin Tmax R s Состояние
почвы
00 27.04.17 050 (СВ) 10 км  {ливн. осадки}  10/10 300 м кучево-дожд. 
[Cb cap]
-0.4 -1 96 1004.7  -0.3  753  304           
03 27.04.17 050 (СВ) 10 км  слаб. ливневой снег  10/10 300 м кучево-дожд. 
[Cb cap]
+0.2 -0.3 96 -1  1004.6  -0.1  753  303           
06 27.04.17 050 (СВ) 10 км  в посл. час ливневой снег  10/10 300 м кучево-дожд. 
[Cb cap]
-0.2 -0.8 96 1004.4  -0.2  753  304           
09 27.04.17 020 (С) 20000 м    10/10 600 м кучево-дожд. 
[Cb cap]
-1.1 -1.5 97 -1  1003.8  -0.6  752  305    +0.3  0.4     
12 27.04.17 тихо ()   20000 м    10/10 600 м кучево-дожд. 
[Cb cap]
-1.9 -2.4 96 -2  1003.7  -0.1  752  306           
15 27.04.17 050 (СВ) 20000 м    10/10 600 м кучево-дожд. 
[Cb cap]
-2.1 -2.4 98 -2  1002.7  -1  752  305           
18 27.04.17 тихо ()   20000 м    10/10 600 м кучево-дожд. 
[Cb cap]
-2.1 -2.7 96 -2  1001.8  -0.9  751  305           
21 27.04.17 050 (СВ) 20000 м    8/8 600 м кучево-дожд. 
[Cb cap]
-1.8 -2.6 94 -1  1001.2  -0.6  750  305  -2.3      26  неравномерный
мокрый или
старый снег
100% 
00 28.04.17 050 (СВ) 20000 м    10/8 600 м кучево-дожд., средняя 
[Cb cap|Ac As]
-1 -2 93 1000.5  -0.7  750  304           
03 28.04.17 360 (С) 20000 м    6/0 средняя 
[Ac As]
+0.3 -2.9 79 999.3  -1.2  749  302           
06 28.04.17 200 (Ю) 20000 м    4/0 верхняя 
[Ci fib]
+0.2 -3 79 -3  997.9  -1.4  748  301           
09 28.04.17 230 (ЮЗ) 20000 м    4/0 верхняя 
[Ci fib]
+0.1 -2.8 81 -3  997.2  -0.7  747  301    +0.6       
12 28.04.17 тихо ()   20000 м    4/0 верхняя 
[Ci fib]
-2.8 -5.5 82 -3  997.3  0.1  748  305           
15 28.04.17 тихо ()   20000 м    4/0 верхняя 
[Ci fib]
-6.2 -8.5 84 -6  997.4  0.1  748  309           
18 28.04.17 тихо ()   20000 м    3/0 верхняя 
[Ci fib]
-7.4 -10 82 -7  997.7  0.1  748  311           
21 28.04.17 тихо ()   20000 м    ясно 
-2.2 -4.4 85 -2  998.6  0.9  749  305    -7.8    25  неравномерный
мокрый или
старый снег
100% 
00 29.04.17 230 (ЮЗ) 20000 м    4/0 верхняя 
[Ci fib]
-1.4 -2.2 94 -3  1000.1  1.5  750  304           
03 29.04.17 230 (ЮЗ) 20000 м    4/0 верхняя 
[Sc|Ci fib]
+1.4 -3.4 70 -1  1001.4  1.3  751  301           
06 29.04.17 200 (Ю) 20000 м    10/10 600 м 
[Sc]
-0.8 -1.4 96 -3  1002.7  1.3  752  304           
09 29.04.17 320 (СЗ) 0500 м  туман  ?/?  
-2.1 -3 94 -2  1004.5  1.8  753  306    +1.6       
12 29.04.17 320 (СЗ) 0500 м  туман  ?/?  
-2.3 -3.5 91 -2  1006.6  2.1  755  307           
15 29.04.17 тихо ()   0500 м  туман  ?/?  
-2.1 -3 94 -2  1007.6  1.6  755  307           
18 29.04.17 тихо ()   0500 м  туман  ?/?  
-2.4 -3.3 94 -2  1008.8  1.2  756  308           
21 29.04.17 320 (СЗ) 4000 м  в посл. час снег{туман}  10/10 300 м 
[St]
-2.3 -3.2 94 -2  1009.9  1.1  757  308  -2.7    0.0  25  неравномерный
мокрый или
старый снег
100% 
00 30.04.17 230 (ЮЗ) 10 км  {снег, туман}  10/10 300 м 
[St]
-1.8 -2.6 94 -1  1010.7  0.8  758  308           
Время (UTC), дата Ветер
(°,м/с) 
Видим.   Явления Облачность Т
(°С)
Тd
(°С)
f(%) Тe
(°С)
Pmin
(гПа)
dP
(гПа)
Po
(мм)
O2
(г/м3)
Тmin Tmax R s Состояние
почвы

Для получения пояснительной информации подведите курсор к названию столбца.

ПОГОДА Уля - архив

Всё, что Вы хотите узнать о погоде Уля - удобно и подробно!

Выберите нужную дату (начиная с 1 января 2015* года) и нажмите кнопку "Найти".
Будут отображены архивные сводки погоды по пункту Уля, начиная с указанной даты.


Отображать данные в формате CSV (для использования в таблицах Excel)


Внимание! Наш архив погоды предназначен исключительно для личного некоммерческого использования в познавательных целях. Если Вам необходимы официальные справки о состоянии погоды (для производственных, юридических, коммерческих и т.п. целей), обращайтесь в органы Росгидромета.

*Примечание: данная дата относится к архиву по метеостанциям СССР (Россия, СНГ, Балтия).
Архив по метеостанциям Зарубежной Европы и Азии (кроме Китая) хранится 10 дней, по другим регионам земного шара (Китай, Африка, Америка, Австралия, Океания) - 1 день.

Уля - район местоположения метеостанции


Название, широта, долгота, высота метеостанции:
Уля 58.8°ш. 141.7°д. 4 м над ур. моря [Российская Федерация]

Дополнительная информация

В oтличие oт бoльшинства пoгoдных сайтoв мы публикуем пoдрoбную метеoинфoрмацию в детальнoм прoфессиoнальнoм фoрмате.

Характеристики температуры и влажнoсти вoздуха измеряются на высoте 2 м в тени вдали oт зданий и деревьев.
Скoрoсть ветра измеряется на высoте 10 м (на урoвне рoста челoвека скoрoсть ветра ниже в 1.5-2 раза). Если метеoстанция нахoдится в гoрoде или в лесу, тo скoрoсть ветра занижена на 2-4 м/с пo сравнению с oткрытым местoм. Скoрoсть ветра над акватoриями крупных рек и oзёр, а также на вершинах хoлмoв на 2-5 м/с выше, чем в oбычных услoвиях.
Атмoсфернoе давление в разных тoчках местнoсти мoжет значительнo oтличаться oт давления на метеoстанции, в зависимoсти oт услoвий рельефа (при пoдъёме на 10 м давление пoнижается примернo на 1 мм рт.ст.).